This is the latest recevied weather packets stored in our database for station/object N4DBJ. If no packets are shown the sender has not sent any weather packets the latest 10 day(s).
| Time | Temp. | Humidity | Pressure | Rain* | Wind** | Luminosity | Snow |
|---|---|---|---|---|---|---|---|
| 1777753939 | 17.78° C | 48% | 1013 hPa | 0 mm | - | 130 W/m² | - |
| 1777753632 | 18.89° C | 46% | 1012.9 hPa | 0 mm | - | 146 W/m² | - |
| 1777753331 | 18.33° C | 45% | 1013.1 hPa | 0 mm | - | 544 W/m² | - |
| 1777753028 | 17.22° C | 52% | 1012.8 hPa | 0 mm | - | 180 W/m² | - |
| 1777752725 | 17.22° C | 43% | 1013 hPa | 0 mm | - | 172 W/m² | - |
| 1777752420 | 17.78° C | 44% | 1013.3 hPa | 0 mm | - | 190 W/m² | - |
| 1777752117 | 18.89° C | 47% | 1013.2 hPa | 0 mm | - | 215 W/m² | - |
| 1777751815 | 17.78° C | 45% | 1013.3 hPa | 0 mm | - | 369 W/m² | - |
| 1777751511 | 18.33° C | 44% | 1013.1 hPa | 0 mm | - | 158 W/m² | - |
| 1777751208 | 18.89° C | 43% | 1013.4 hPa | 0 mm | - | 614 W/m² | - |
| 1777750905 | 18.33° C | 45% | 1013.3 hPa | 0 mm | - | 644 W/m² | - |
| 1777750601 | 17.78° C | 53% | 1013.4 hPa | 0 mm | - | 704 W/m² | - |
| 1777750298 | 16.67° C | 53% | 1013.5 hPa | 0 mm | - | 275 W/m² | - |
| 1777749993 | 16.67° C | 52% | 1013.8 hPa | 0 mm | - | 185 W/m² | - |
| 1777749691 | 16.67° C | 46% | 1013.8 hPa | 0 mm | - | 95 W/m² | - |
| 1777749388 | 17.22° C | 46% | 1013.7 hPa | 0 mm | - | 109 W/m² | - |
| 1777749085 | 17.78° C | 46% | 1013.5 hPa | 0 mm | - | 184 W/m² | - |
| 1777748783 | 17.78° C | 46% | 1013.6 hPa | 0 mm | - | 330 W/m² | - |
| 1777748481 | 17.22° C | 50% | 1013.7 hPa | 0 mm | - | 488 W/m² | - |
| 1777748174 | 17.22° C | 46% | 1013.6 hPa | 0 mm | - | 659 W/m² | - |
| 1777747871 | 17.78° C | 47% | 1014 hPa | 0 mm | - | 240 W/m² | - |
| 1777747568 | 18.33° C | 49% | 1014 hPa | 0 mm | - | 546 W/m² | - |
| 1777747263 | 17.22° C | 49% | 1013.7 hPa | 0 mm | - | 771 W/m² | - |
| 1777746960 | 17.78° C | 54% | 1014.1 hPa | 0 mm | - | 779 W/m² | - |
| 1777746656 | 16.67° C | 46% | 1013.9 hPa | 0 mm | - | 258 W/m² | - |
* Rain latest hour (hover to see other rain measurements)
** Current wind speed in m/s (hover to see current wind gust speed)